Other Public Products
Issued by NWS Grand Forks, ND

Home | Current Version | Previous Version | Graphics & Text | Print | Product List | Glossary On
Versions: 1 2 3 4 5 6 7 8 9 10 11 12 13 14 15 16 17 18 19 20 21 22 23 24 25 26 27 28 29 30 31 32 33 34 35 36 37 38 39 40 41 42 43 44 45 46 47 48 49 50
438
FPUS83 KFGF 270131
OPUFGF
PRAIRIE TO PINES WEATHER ROUNDUP
NATIONAL WEATHER SERVICE EASTERN NORTH DAKOTA/GRAND FORKS ND
800 PM CDT THU MAY 26 2016

 **SATELLITE DATA USED TO AUGMENT SKY COVER AT AUTOMATED STATIONS**
 *****  WEATHER ACROSS EASTERN NORTH DAKOTA  *****

CITY           SKY/WX    TMP DP  RH WIND       PRES   REMARKS
GRAND FORKS    MOSUNNY   68  54  60 NW12      29.71S
GRAND FORKS AF SUNNY     67  54  62 NW9       29.71F
GRAND CITY NWS   N/A     64 N/A N/A N3          N/A
BUXTON           N/A     69  58  68 CALM        N/A
DEVILS LAKE    CLOUDY    61  53  75 N9        29.78R
FARGO          PTCLDY    76  53  44 N3        29.75R
WAHPETON ARPT  CLOUDY    72  46  40 S3        29.79R
$$

 *****  WEATHER ACROSS CENTRAL AND WESTERN NORTH DAKOTA  *****

CITY           SKY/WX    TMP DP  RH WIND       PRES   REMARKS
JAMESTOWN      SUNNY     70  48  45 W9        29.71S
BISMARCK       MOSUNNY   68  48  48 N12       29.75S
MINOT          CLOUDY    60  48  64 W10       29.81S
MINOT AFB      CLOUDY    60  53  76 NE8       29.80R
GARRISON         N/A     61  50  67 N17G23    29.79R
WILLISTON      MOSUNNY   63  50  62 N16G24    29.81R
DICKINSON      MOSUNNY   60  41  49 W14       29.79S
HETTINGER      SUNNY     57  43  59 NW14      29.83S
$$

 *****  OTHER OBSERVATIONS NORTHEAST NORTH DAKOTA  *****

CITY           SKY/WX    TMP DP  RH WIND       PRES   REMARKS
WALHALLA       FAIR      59  59 100 NW9       29.73
LANGDON        FAIR      59  55  88 NW15G23   29.75
CAVALIER       MOCLDY    63  55  77 NW13      29.71
GRAFTON        FAIR      63  55  77 NW14      29.73
CANDO          FAIR      59  54  82 N7        29.80
FORT TOTTEN      N/A     60  50  69 NW3       29.95S
ROLLA          CLOUDY    57  54  88 N10       29.80
RUGBY          NOT AVBL
 ***** THE ABOVE OBSERVATIONS ARE NON NWS ARE NOT QUALITY
        CONTROLLED AND MAY MIS-REPORT RAIN FOR SNOW...
$$

 *****  OTHER OBSERVATIONS SOUTHEAST NORTH DAKOTA *****

CITY           SKY/WX    TMP DP  RH WIND       PRES   REMARKS
COOPERSTOWN    NOT AVBL
VALLEY CITY    FAIR      68  55  64 CALM      29.78
OAKES          NOT AVBL
GWINNER        FAIR      73  55  53 S5        29.78
BUFFALO          N/A     71  51  48 E3          N/A
WYNDMERE         N/A     75  48  38 SW3         N/A
 ***** THE ABOVE OBSERVATIONS ARE NON NWS ARE NOT QUALITY
       CONTROLLED AND MAY MIS-REPORT RAIN FOR SNOW...
$$

  *****  WEATHER ACROSS NORTHERN MINNESOTA  *****

CITY           SKY/WX    TMP DP  RH WIND       PRES   REMARKS
FLAG ISLAND    PTCLDY    64  54  68 SW9       29.67F
WARROAD        CLEAR     66  57  72 W8        29.69F
ROSEAU         CLEAR     66  57  72 W8        29.69F
HALLOCK        MOSUNNY   64  55  72 NW15      29.69F
THF RVR FALLS  CLEAR     66  54  63 W7        29.75R
HALSTAD        NOT AVBL
FOSSTON        CLEAR     68  54  60 SW5       29.79R
BAUDETTE       CLEAR     69  52  54 W9        29.68F
WASKISH        CLEAR     66  55  68 SW9       29.76R
CROOKSTON      CLEAR     68  55  64 NW8       29.74R
$$
  *****  WEATHER ACROSS CENTRAL AND WEST MINNESOTA  *****

CITY           SKY/WX    TMP DP  RH WIND       PRES   REMARKS
BEMIDJI        CLEAR     67  51  56 SW6       29.80R
PARK RAPIDS    CLEAR     70  50  49 NW6       29.81R
WADENA         PTCLDY    70  54  56 CALM      29.83R
DETROIT LAKES  CLOUDY    70  54  56 S5        29.83R
MOORHEAD       MOCLDY    72  55  56 CALM      29.79R
FERGUS FALLS   PTCLDY    72  50  46 W3        29.77R
ELBOW LAKE     MOCLDY    72  53  49 CALM      29.82R
MORRIS MN      CLOUDY    73  48  40 SW7       29.81R
STAPLES        CLOUDY    70  48  46 CALM      29.83R
WHEATON        CLOUDY    75  52  43 S5        29.82R
$$
  *****  WEATHER ELSEWHERE ACROSS MINNESOTA  *****

CITY           SKY/WX    TMP DP  RH WIND       PRES   REMARKS
DULUTH         PTCLDY    52  49  89 SE7       29.81R
INTRNTL FALLS  CLEAR     70  52  52 W6        29.71F
ELY            PTCLDY    70  50  49 CALM      29.79R
CLOQUET        CLEAR     55  50  82 SE3       29.83R
BRAINERD       CLOUDY    72  46  39 W6        29.83R
HIBBING        PTCLDY    71  51  49 W7        29.77R
ALEXANDRIA     MOCLDY    72  50  45 CALM      29.84R
SAINT CLOUD    CLOUDY    76  48  37 W3        29.83R
MINNEAPOLIS    CLOUDY    78  49  35 SW3       29.83R
$$

  *****  WEATHER ACROSS SOUTH DAKOTA  *****

CITY           SKY/WX    TMP DP  RH WIND       PRES   REMARKS
SIOUX FALLS    CLOUDY    70  56  61 E7        29.82F
BROOKINGS      PTCLDY    71  53  52 S10       29.83R
WATERTOWN      PTCLDY    72  52  49 S8        29.84R
HURON          CLOUDY    73  56  54 MISG      29.79R
SISSETON         N/A     75  49  39 SW8       29.80R
ABERDEEN       PTSUNNY   75  51  43 S5        29.77R
MITCHELL       CLOUDY    72  58  61 SE6       29.80F
PIERRE         MOSUNNY   72  53  51 NW8       29.77R
MOBRIDGE       MOSUNNY   75  45  34 W7        29.74R
RAPID CITY     PTSUNNY   66  45  46 N6        29.82S
$$

  *****  SOME WEATHER IN NEARBY STATES *****

CITY           SKY/WX    TMP DP  RH WIND       PRES   REMARKS
GLASGOW MT     CLOUDY    59  53  80 NE14      29.81R
GREAT FALLS MT PTSUNNY   56  46  69 NE10      29.91R
CHEYENNE WY    CLOUDY    48  42  80 NW7       29.92R
SCOTTSBLUFF NE CLOUDY    62  40  44 NW9       29.85F
OMAHA NE       LGT RAIN  64  58  80 S10       29.90R
DES MOINES IA  RAIN      66  62  87 N13       29.96F FOG
DAVENPORT IA   CLOUDY    79  66  64 W3        29.86R
CHICAGO IL     CLOUDY    79  63  57 CALM      29.85R
EAU CLAIRE WI  CLOUDY    73  54  51 W5        29.82R
LA CROSSE WI   CLOUDY    76  60  57 CALM      29.83R
$$

  *****  SOME NATIONAL WEATHER *****

CITY           SKY/WX    TMP DP  RH WIND       PRES   REMARKS
LA GUARDIA NY  MOCLDY    77  58  51 S12       30.03S
RALEIGH NC     PTCLDY    80  62  54 S5        30.08R
ATLANTA GA     PTCLDY    81  61  50 SW7       30.09R THUNDER
NEW ORLEANS LA CLOUDY    81  71  71 SE9       29.98F
OKLAHOMA CITY  CLOUDY    76  64  66 S18G26    29.73R
ALBUQUERQUE NM MOSUNNY   68  13  12 W18G30    29.87R
SALT LAKE CITY MOSUNNY   69  36  29 W13       29.92S
LOS ANGELES CA MOSUNNY   63  55  75 W15       29.97F
BOISE ID       MOSUNNY   73  34  23 N9        29.90F
SEATTLE WA     PTSUNNY   60  45  57 SW13      30.15S
$$

*** WEATHER ACROSS MANITOBA...SASKATCHEWAN AND ONTARIO ***
                ***ONTARIO***

CITY           SKY/WX    TMP DP  RH WIND       PRES   REMARKS
GERALDTON      MOCLDY    59  52  77 SE2       29.79S
THUNDER BAY    PTCLDY    55  52  88 E12       29.76F
SIOUX LOOKOUT  MOCLDY    63  59  88 VRB2      29.72F
TORONTO        MOCLDY    66  59  77 S3        29.94R
BIG TROUT LK   CLOUDY    64  48  55 SE3       29.75S
PICKLE LAKE    LGT RAIN  59  55  88 S6        29.75R
DRYDEN         LGT RAIN  64  57  77 S6        29.72R
KENORA         MOCLDY    64  55  72 SW2       29.71S
$$
                *** MANITOBA***

CITY           SKY/WX    TMP DP  RH WIND       PRES   REMARKS
BRANDON        LGT RAIN  57  55  94 W9        29.78R
DAUPHIN        PTSUNNY   61  55  82 W3        29.76S
ISLAND LAKE    PTSUNNY   68  50  52 N2        29.74S
PILOT MOUND      N/A     57  54  88 NW10        N/A
THE PAS        CLOUDY    66  46  48 NE9G17    29.83R
THOMPSON       MOSUNNY   48  36  61 N17G25    29.96R
WINNIPEG       PTSUNNY   61  57  88 N12       29.70R
LYNN LAKE      CLOUDY    45  36  70 NE15G21   30.04R
CHURCHILL      CLOUDY    32  30  93 NE23G31   30.16R WCI  19
GILLAM         CLOUDY    39  34  81 NE20G25   29.99R
$$
                ***SASKATCHEWAN***

CITY           SKY/WX    TMP DP  RH WIND       PRES   REMARKS
ESTEVAN        CLOUDY    55  54  94 NW3       29.83F
KINDERSLEY     MOSUNNY   66  46  48 S13       29.84S
LLOYDMINSTER   MOSUNNY   68  48  49 W9        29.82S
PRINCE ALBERT  MOSUNNY   73  45  35 N7        29.81R
REGINA         CLOUDY    59  48  67 NE15      29.87R
YORKTON        SUNNY     66  48  52 E6        29.78S
N. BATTLEFORD  SUNNY     72  41  33 CALM      29.84R   C1F1C2F2C3F3C4F4C5F5C6F6C7F7C8F8C9F9CaFaCbFbCcFcCdFdCe!



USA.gov is the U.S. government's official web portal to all federal, state and local government web resources and services.